THOR BURNER 2 R/B, 3522

Orbit data source: Space-Track

THOR BURNER 2 R/B, 3522 is space debris in SSO originally from a launch on Wed, 23 Oct 1968 UTC launched from the Air Force Western Test Range (AFWTR). Debris objects in space refer to the collection of defunct objects orbiting the Earth. Examples of debris include non-operational satellites, rocket bodies, and fragments generated from explosions, collisions, or faulty payload assembly.

Loading next visibility...
Identifier
3522, 1968-092B
Orbit
SSO
Country
Flag of USUS
Related business
Manufacturer
Thiokol/TE
Mission
Spacecraft
Bus & Motor
STAR 37, Unknown motor
Mass
154 kg wet, 154 kg dry
Launch date (UTC)
1968-10-23 (57 years ago)
Launch vehicle
Unknown
Launch site
Air Force Western Test Range (AFWTR)
Object type
Payload
Rocket body
Debris
Shape & HBR
Unknown
Radar Cross Section
Large (>1 m²)

Expand to show TLE details & history
Last TLE update: 4 hours ago

TLE from 4 hours ago
0 THOR BURNER 2 R/B
1  3522U 68092B   26037.84960737  .00000375  00000-0  15906-3 0  9998
2  3522  98.7947 187.9219 0028825 186.6893 173.3908 14.30971179981631
Epoch: 2026-02-06T20:23Z
TLE epoch observation values (Epoch: 2026-02-06T20:23:26.076Z)
Latitude
-0.00008°
Longitude
105.08169°
Altitude
811.939 km
Speed
7.437 km/s
True Right ascension
12h 31m 41s
True Declination
0° 00' 00"
Sunlit
Object was in full shadow at epoch
Visualization orbit readout
Latitude
Unknown
Longitude
Unknown
Altitude
Unknown
Speed
Unknown
Apparent Right ascension
Unknown
Apparent Declination
Unknown
Sunlit
N/A
Visualization observer readout
Local Sidereal Time
02:40:51
Azimuth
Unknown
Elevation
Unknown
Doppler factor
Unknown
Orbital elements
Apogee altitude
806.284 km
Perigee altitude
764.985 km
Semi-major axis
7,163.771 km
Eccentricity
0.00288
Inclination
98.7947°
RAAN
187.9219°
Arg. of periapsis
186.6893°
True anomaly
173.42868°
Mean anomaly
173.3908°
Eccentric anomaly
173.40975°
Mean motion
3.57957 °/min
Orbital period
100.57 mins
BSTAR
0.00015906
Loading maneuver chart data...
Computing Atmospheric mass density...
Loading historical data...
Loading historical data...
Loading historical data...
Loading historical data...
Loading historical data...
Loading historical data...
Loading historical data...
Other satellites on launch #92 in the year 1968 (1968-10-23 UTC)

Documentation

Showing up to 5 results
|